Regional Weather Roundup
Issued by NWS

Home | Current Version | Previous Version | Text Only | Print | Product List | Glossary Off
Versions: 1 2 3 4 5 6 7 8 9 10 11 12 13 14 15 16 17 18 19 20 21 22 23 24 25 26 27 28 29 30 31 32 33 34 35 36 37 38 39 40 41 42 43 44 45 46 47 48 49 50

000
ASUS43 KDTX 270310
RWRMI
MICHIGAN HOURLY REGIONAL WEATHER ROUNDUP
NATIONAL WEATHER SERVICE DETROIT/PONTIAC MI
1100 PM EDT FRI MAY 26 2017

NOTE: "FAIR" INDICATES FEW OR NO CLOUDS BELOW 12,000 FEET WITH NO
SIGNIFICANT WEATHER AND/OR OBSTRUCTION TO VISIBILITY.

MIZ047>049-052>055-059>063-066>070-074>076-081>083-270400-
SOUTHEAST LOWER MICHIGAN

CITY           SKY/WX    TMP DP  RH WIND       PRES   REMARKS
ADRIAN         LGT RAIN  61  59  93 E9        29.86F
ALMA           CLOUDY    59  57  93 CALM      29.88S
ANN ARBOR      PTCLDY    59  56  89 CALM      29.87F
BAD AXE        CLEAR     53  52  97 SE3       29.90R
CARO           PTCLDY    57  55  92 CALM      29.88S
DETROIT CITY   PTCLDY    61  56  83 SE3       29.89R
DETROIT        CLOUDY    63  56  78 CALM      29.88F
FLINT          CLOUDY    59  55  87 SE5       29.88S
GROSSE ILE     MOCLDY    59  56  89 CALM      29.88S
HILLSDALE      LGT RAIN  59  57  94 CALM      29.87R
HOWELL         PTCLDY    60  52  76 CALM      29.88S

CITY           SKY/WX    TMP DP  RH WIND       PRES   REMARKS
JACKSON        MOCLDY    62  57  83 E5        29.87S
LAMBERTVILLE   CLOUDY    61  57  87 E3        29.86F
LANSING        CLOUDY    64  52  64 CALM      29.87S
LAPEER         FAIR      55  54  96 CALM      29.89S
MASON          CLOUDY    61  57  87 CALM      29.88S
MONROE         PTCLDY    57  55  93 CALM      29.87F
MT. CLEMENS    MOCLDY    58  57  99 CALM      29.88R
PONTIAC        CLOUDY    60  54  80 CALM      29.88S
PORT HOPE        N/A     50  50 100 SE5       29.88S
PORT HURON     CLEAR     52  50  93 CALM      29.91R FOG
TRI CITIES     CLOUDY    62  55  77 SW5       29.88R
MIDLAND        FAIR      58  55  91 CALM      29.87R
TROY           MOCLDY    62  54  73 CALM      29.90F
SAGINAW HB     MOCLDY    59  52  77 SE3       29.87S
$$
MIZ043>046-050>051-056>058-064>065-071>073-077>080-270400-
SOUTHWEST LOWER MICHIGAN

CITY           SKY/WX    TMP DP  RH WIND       PRES   REMARKS
BATTLE CREEK   CLOUDY    63  57  81 E5        29.88R
BENTON HARBOR  RAIN      57  54  89 E3        29.86F FOG
BIG RAPIDS     CLOUDY    59  52  76 CALM      29.87R
COLDWATER      LGT RAIN  61  61 100 SW3       29.88R
FREMONT        MOCLDY    58  52  80 CALM      29.86S
HOLLAND        LGT RAIN  58  54  86 CALM      29.87S
GRAND RAPIDS   LGT RAIN  62  60  93 S3        29.87R
IONIA          CLOUDY    64  55  72 SE3       29.87R
KALAMAZOO      LGT RAIN  62  58  86 S3        29.88R
LUDINGTON      CLOUDY    51  51  99 CALM      29.87R
MARSHALL       CLOUDY    62  58  86 CALM      29.87R
MOUNT PLEASANT CLOUDY    59  55  85 CALM      29.87R
MUSKEGON       LGT RAIN  58  56  93 SE5       29.87R
SOUTH HAVEN    DRIZZLE   57  56  97 CALM      29.86F
$$
MIZ016>042-270400-
NORTHERN LOWER MICHIGAN

CITY           SKY/WX    TMP DP  RH WIND       PRES   REMARKS
ALPENA         CLEAR     53  51  93 CALM      29.90R
BEAVER ISLAND  PTCLDY    52  49  92 CALM      29.87S
BELLAIRE       PTCLDY    52  50  93 CALM      29.88R
CADILLAC       PTCLDY    54  52  94 CALM      29.87R
CHARLEVOIX     CLEAR     53  52  95 CALM      29.90S
FRANKFORT      CLEAR     48  45  90 CALM      29.88R
GAYLORD        CLEAR     59  50  72 CALM      29.88S
GRAYLING       CLEAR     57  54  87 CALM      29.88S
HARBOR SPRINGS CLEAR     48  47  99 NE3       29.88S
HOUGHTON LAKE  PTCLDY    55  53  93 E5        29.88R
MANISTEE       PTCLDY    49  47  93 CALM      29.87R
OSCODA         CLEAR     53  52  95 N3        29.88S
PELLSTON       PTCLDY    54  49  83 CALM      29.89R
ROGERS CITY    PTCLDY    53  50  91 CALM      29.89R
TRAVERSE CITY  CLEAR     53  49  86 CALM      29.86R
$$
MIZ007>008-015-270400-
EASTERN UPPER MICHIGAN

CITY           SKY/WX    TMP DP  RH WIND       PRES   REMARKS
KINROSS        CLEAR     60  50  69 SW5       29.87S
MACKINAC ISLAN CLEAR     53  49  87 W5        29.88R
NEWBERRY       PTCLDY    55  52  91 SW6       29.87R
S. S. MARIE    CLOUDY    59  50  72 CALM      29.87R
MUNISING         N/A     62  50  64 S6        29.85R
$$
MIZ004>006-011>014-085-270400-
CENTRAL UPPER MICHIGAN

CITY           SKY/WX    TMP DP  RH WIND       PRES   REMARKS
MANISTIQUE     CLOUDY    52  50  93 CALM      29.86R
ESCANABA       LGT RAIN  56  53  90 W5        29.88R
MENOMINEE      CLOUDY    58  51  78 CALM      29.86R
SAWYER-GWINN   HVY RAIN  56  54  92 SW6       29.89R
$$
MIZ001>003-009>011-084-270400-
WESTERN UPPER MICHIGAN

CITY           SKY/WX    TMP DP  RH WIND       PRES   REMARKS
IRON MOUNTAIN  CLOUDY    60  54  80 SE7       29.84S
HOUGHTON       CLOUDY    55  49  80 E5        29.81R
COPPER HARBOR    N/A     55  49  80 W9        29.81R
IRONWOOD       MOCLDY    65  55  70 S7        29.80R
$$

ABBREVIATIONS USED IN REMARKS
   TC - TEMPERATURE IN CELSIUS
  WCI - WIND CHILL INDEX
   HX - HEAT INDEX
  VSB - VISIBILITY




USA.gov is the U.S. government's official web portal to all federal, state and local government web resources and services.